Time,TemperatureF,DewpointF,PressureIn,WindDirection,WindDirectionDegrees,WindSpeedMPH,WindSpeedGustMPH,Humidity,HourlyPrecipIn,Conditions,Clouds,dailyrainin,SoftwareType,DateUTC
2013-09-06 00:03:00,77.0,59.0,28.52,SSW,207,0.0,4.0,53,0.00,,,0.00,,2013-09-06 05:03:00,
2013-09-06 00:23:00,77.0,59.0,28.52,SSE,151,0.0,4.0,54,0.00,,,0.00,,2013-09-06 05:23:00,
2013-09-06 00:52:00,76.0,59.0,28.52,SE,141,0.0,3.0,56,0.00,,,0.00,,2013-09-06 05:52:00,
2013-09-06 01:02:00,76.0,59.0,28.52,SE,141,0.0,3.0,56,0.00,,,0.00,,2013-09-06 06:02:00,
2013-09-06 01:22:00,75.0,59.0,28.52,SSE,152,0.0,3.0,58,0.00,,,0.00,,2013-09-06 06:22:00,
2013-09-06 01:53:00,74.0,59.0,28.52,South,176,0.0,0.0,60,0.00,,,0.00,,2013-09-06 06:53:00,
2013-09-06 02:11:00,74.0,59.0,28.52,SE,138,0.0,3.0,60,0.00,,,0.00,,2013-09-06 07:11:00,
2013-09-06 02:23:00,74.0,60.0,28.52,SE,127,2.0,2.0,61,0.00,,,0.00,,2013-09-06 07:23:00,
2013-09-06 02:52:00,73.0,59.0,28.52,SSE,152,0.0,3.0,61,0.00,,,0.00,,2013-09-06 07:52:00,
2013-09-06 03:03:00,73.0,59.0,28.52,SSE,152,0.0,3.0,61,0.00,,,0.00,,2013-09-06 08:03:00,
2013-09-06 03:22:00,73.0,59.0,28.52,SW,234,0.0,0.0,62,0.00,,,0.00,,2013-09-06 08:22:00,
2013-09-06 03:52:00,72.0,59.0,28.49,SSE,163,0.0,3.0,63,0.00,,,0.00,,2013-09-06 08:52:00,
2013-09-06 04:02:00,72.0,59.0,28.49,SSE,163,0.0,3.0,63,0.00,,,0.00,,2013-09-06 09:02:00,
2013-09-06 04:11:00,72.0,59.0,28.49,SSE,163,0.0,3.0,63,0.00,,,0.00,,2013-09-06 09:11:00,
2013-09-06 04:22:00,72.0,59.0,28.49,SSE,163,0.0,3.0,63,0.00,,,0.00,,2013-09-06 09:22:00,
2013-09-06 04:54:00,71.0,59.0,28.49,SSE,164,0.0,3.0,66,0.00,,,0.00,,2013-09-06 09:54:00,
2013-09-06 05:23:00,71.0,59.0,28.52,SSW,204,0.0,0.0,67,0.00,,,0.00,,2013-09-06 10:23:00,
2013-09-06 05:53:00,70.0,59.0,28.49,South,178,0.0,0.0,68,0.00,,,0.00,,2013-09-06 10:53:00,
2013-09-06 06:02:00,70.0,59.0,28.49,South,178,0.0,0.0,68,0.00,,,0.00,,2013-09-06 11:02:00,
2013-09-06 06:22:00,69.0,58.0,28.52,South,178,0.0,0.0,69,0.00,,,0.00,,2013-09-06 11:22:00,
2013-09-06 06:33:00,69.0,58.0,28.52,South,178,0.0,0.0,69,0.00,,,0.00,,2013-09-06 11:33:00,
2013-09-06 06:52:00,69.0,59.0,28.52,South,178,0.0,0.0,71,0.00,,,0.00,,2013-09-06 11:52:00,
2013-09-06 07:21:00,70.0,60.0,28.52,South,173,0.0,0.0,71,0.00,,,0.00,,2013-09-06 12:21:00,
2013-09-06 07:52:00,69.0,59.0,28.52,SSE,150,0.0,0.0,71,0.00,,,0.00,,2013-09-06 12:52:00,
2013-09-06 08:22:00,70.0,61.0,28.52,SSE,166,0.0,0.0,72,0.00,,,0.00,,2013-09-06 13:22:00,
2013-09-06 08:32:00,70.0,61.0,28.52,SSE,166,0.0,0.0,72,0.00,,,0.00,,2013-09-06 13:32:00,
2013-09-06 08:52:00,70.0,61.0,28.52,SSE,166,0.0,0.0,72,0.00,,,0.00,,2013-09-06 13:52:00,
2013-09-06 09:22:00,74.0,63.0,28.52,ESE,117,0.0,4.0,69,0.00,,,0.00,,2013-09-06 14:22:00,
2013-09-06 09:32:00,74.0,63.0,28.52,ESE,117,0.0,4.0,69,0.00,,,0.00,,2013-09-06 14:32:00,
2013-09-06 09:52:00,79.0,63.0,28.52,ESE,113,3.0,5.0,59,0.00,,,0.00,,2013-09-06 14:52:00,
2013-09-06 10:01:00,79.0,63.0,28.52,ESE,113,3.0,5.0,59,0.00,,,0.00,,2013-09-06 15:01:00,
2013-09-06 10:11:00,79.0,63.0,28.52,ESE,113,3.0,5.0,59,0.00,,,0.00,,2013-09-06 15:11:00,
2013-09-06 10:22:00,79.0,63.0,28.52,ESE,113,3.0,5.0,59,0.00,,,0.00,,2013-09-06 15:22:00,
2013-09-06 13:22:00,96.0,59.0,28.46,ESE,120,5.0,5.0,29,0.00,,,0.00,,2013-09-06 18:22:00,
2013-09-06 14:22:00,99.0,58.0,28.43,SE,131,2.0,5.0,26,0.00,,,0.00,,2013-09-06 19:22:00,
2013-09-06 14:52:00,99.0,58.0,28.43,South,172,3.0,7.0,26,0.00,,,0.00,,2013-09-06 19:52:00,
2013-09-06 18:52:00,94.0,55.0,28.37,SSE,164,2.0,7.0,27,0.00,,,0.00,,2013-09-06 23:52:00,
2013-09-06 20:53:00,87.0,58.0,28.37,South,171,0.0,3.0,37,0.00,,,0.00,,2013-09-07 01:53:00,
2013-09-06 21:02:00,87.0,58.0,28.37,South,171,0.0,3.0,37,0.00,,,0.00,,2013-09-07 02:02:00,
2013-09-06 21:23:00,85.0,59.0,28.37,ESE,115,3.0,5.0,41,0.00,,,0.00,,2013-09-07 02:23:00,
2013-09-06 21:52:00,84.0,59.0,28.37,SE,131,2.0,5.0,43,0.00,,,0.00,,2013-09-07 02:52:00,
2013-09-06 22:02:00,84.0,59.0,28.37,SE,131,2.0,5.0,43,0.00,,,0.00,,2013-09-07 03:02:00,
2013-09-06 22:23:00,83.0,58.0,28.37,SE,145,2.0,3.0,43,0.00,,,0.00,,2013-09-07 03:23:00,
2013-09-06 22:55:00,82.0,59.0,28.37,SE,129,3.0,5.0,46,0.00,,,0.00,,2013-09-07 03:55:00,
2013-09-06 23:03:00,82.0,59.0,28.37,SE,129,3.0,5.0,46,0.00,,,0.00,,2013-09-07 04:03:00,
2013-09-06 23:23:00,81.0,59.0,28.37,SSE,154,0.0,5.0,47,0.00,,,0.00,,2013-09-07 04:23:00,
2013-09-06 23:54:00,79.0,59.0,28.37,SE,139,0.0,5.0,51,0.00,,,0.00,,2013-09-07 04:54:00,